Temperature
11 11 11 11 11 11 11 11 11 11 11 12 12 12 12 12 12 13 13 13 13 13 13 14 14 14 14 14 14 14 14 14 14 14 15 15 15 15 15 15 15 15 15
11 11 11 11 11 11 11 11 11 11 11 11 12 12 12 12 12 12 12 13 13 13 13 13 13 13 14 14 14 14 14 14 14 14 14 14 14 14 14 14 14 14 14
11 11 11 11 11 11 11 11 11 11 11 11 12 12 12 12 12 12 12 12 13 13 13 13 13 13 13 13 13 13 13 13 13 14 14 14 14 14 14 14 14 14 14
11 11 11 11 11 11 11 11 11 11 11 11 11 11 12 12 12 12 12 12 12 12 13 13 13 13 13 13 13 13 13 13 13 13 14 13 13 13 13 13 13 13 13
11 11 11 11 11 11 11 11 11 11 11 11 11 11 11 11 11 12 12 12 12 12 12 13 13 13 13 13 13 13 13 13 13 13 13 13 13 13 13 13 13 13 12
11 11 11 11 11 11 11 11 11 11 11 11 11 11 11 11 11 11 11 12 12 12 12 12 13 13 13 13 13 13 13 13 13 13 13 13 13 13 13 13 13 12 12
12 11 11 11 11 11 11 11 11 11 11 11 11 11 11 11 11 11 11 11 12 12 12 12 12 12 13 13 13 13 13 13 13 13 13 13 13 13 13 13 12 12 12
12 11 11 11 11 11 11 11 11 11 11 11 11 11 11 11 11 11 11 11 12 12 12 12 12 12 12 12 12 12 12 12 13 13 13 13 13 13 13 13 12 12 12
12 12 11 11 11 11 11 11 11 11 11 11 11 11 11 11 11 11 11 11 12 12 12 12 12 12 12 12 12 12 12 12 12 12 12 12 12 12 12 12 12 12 11
12 12 11 11 11 11 11 11 11 11 11 11 11 11 11 11 11 11 11 11 11 11 11 11 11 11 11 11 12 12 12 12 12 12 12 12 12 12 12 12 12 12 12
12 12 12 11 11 11 11 11 11 11 11 11 11 11 11 11 11 11 11 11 11 11 11 11 11 11 11 11 11 12 12 12 12 12 12 12 12 12 12 12 12 12 11
13 12 12 11 11 11 11 11 11 11 11 11 11 11 11 11 11 11 11 11 11 11 11 11 11 11 11 11 11 11 11 11 12 12 12 11 11 11 11 11 11 11 11
13 13 12 12 11 11 11 11 11 11 11 11 11 11 11 11 11 11 11 11 11 11 11 11 11 11 11 11 11 11 11 11 11 11 11 11 11 11 11 11 11 11 11
13 13 13 12 12 11 11 11 11 11 11 11 11 11 11 11 11 11 11 11 11 11 11 11 11 11 11 11 11 11 11 11 11 11 11 11 11 11 10 10 10 10 10
14 13 13 12 12 12 12 11 11 11 11 11 11 11 11 11 11 11 11 11 11 11 11 11 11 11 11 11 11 11 11 11 11 11 11 10 10 10 10 10 10 10 10
14 14 13 13 12 12 12 12 11 11 11 11 11 11 11 11 11 11 10 10 10 10 10 10 11 10 10 10 10 10 10 10 10 10 10 10 10 10 10 10 10 10 10
15 14 14 13 13 12 12 12 12 11 11 11 11 11 11 11 11 11 10 10 10 10 10 10 10 10 10 10 10 10 10 10 10 10 10 10 9 9 9 9 9 9 9
15 15 14 14 13 13 12 12 12 12 12 11 11 11 11 11 11 11 11 10 10 10 10 10 10 10 10 10 10 10 10 10 10 9 9 9 9 9 9 9 9 9 9
16 15 15 14 14 13 13 12 12 12 12 12 11 11 11 11 11 11 11 11 11 10 10 10 10 10 10 10 10 10 10 9 9 9 9 9 9 9 9 9 8 8 8
16 16 15 15 14 14 13 13 12 12 12 12 12 12 11 11 11 11 11 11 11 11 10 10 10 10 10 10 10 10 9 9 9 9 9 9 9 9 8 8 8 8 8
16 16 15 15 14 14 14 13 13 12 12 12 12 12 11 11 11 11 11 11 11 11 11 11 11 10 10 10 10 10 10 9 9 9 9 9 9 8 8 8 8 8 8
16 16 16 15 15 14 14 13 13 13 12 12 12 12 12 11 11 11 11 11 11 11 11 11 11 11 11 11 10 10 10 10 9 9 9 9 9 8 8 8 8 8 8
16 16 16 15 15 15 14 14 13 13 13 12 12 12 12 12 12 12 11 11 11 11 11 11 11 11 11 11 11 11 10 10 10 10 9 9 9 8 8 8 8 8 8
16 16 16 15 15 15 14 14 14 13 13 13 12 12 12 12 12 12 12 11 11 11 11 11 11 11 11 11 11 11 11 10 10 10 10 9 9 9 8 8 8 8 8
15 15 15 15 15 15 14 14 14 14 13 13 13 12 12 12 12 12 12 12 11 11 11 11 11 11 11 11 11 11 11 11 10 10 10 9 9 9 8 8 8 8 8
14 15 15 15 15 15 14 14 14 14 13 13 13 13 12 12 12 12 12 12 12 12 11 11 11 11 11 11 11 11 11 11 11 10 10 10 9 9 9 8 8 8 8
Wind_Speed
7 7 7 7 7 7 7 7 7 6 7 6 6 5 5 4 3 1 1 1 2 2 2 3 3 3 3 4 4 4 3 3 3 2 1 1 3 4 4 6 7 7 7
6 6 7 7 7 8 8 8 8 7 7 7 6 5 5 4 3 1 1 1 1 2 2 2 3 3 3 3 4 5 4 4 4 3 2 1 2 4 4 4 5 6 7
5 6 7 7 8 8 8 8 8 7 7 7 7 6 5 4 3 2 1 0 1 2 3 3 3 3 4 3 5 5 4 4 3 4 3 1 2 3 4 4 5 5 7
4 5 6 7 7 7 7 8 8 7 7 8 7 6 6 5 4 3 2 2 1 1 1 2 2 3 4 4 4 5 5 5 5 4 4 3 2 3 4 5 5 4 5
3 4 5 6 6 7 7 8 8 8 8 7 8 8 7 5 5 5 3 2 2 2 2 1 1 1 3 3 4 5 6 5 5 5 4 3 4 4 5 4 6 6 4
3 4 5 6 6 7 7 7 8 8 8 8 8 8 8 7 8 8 6 4 3 3 3 2 2 1 1 2 3 5 6 7 7 5 4 5 5 4 5 6 6 5 3
2 4 4 5 6 6 6 7 8 8 8 8 8 8 8 8 10 10 10 6 4 4 3 3 3 3 3 3 4 5 3 4 6 6 6 5 6 6 7 7 6 5 4
2 3 4 4 5 6 6 6 6 5 6 6 8 8 8 9 12 11 11 7 6 5 5 4 3 3 3 4 4 5 4 3 3 4 5 5 5 7 7 7 7 7 6
2 3 3 3 4 5 6 5 5 5 5 6 6 8 8 9 12 11 9 5 6 6 6 5 4 4 5 6 5 5 5 5 6 8 8 8 10 11 10 9 8 8 5
4 3 3 2 2 3 4 4 3 3 4 5 6 7 7 8 12 12 10 5 5 5 6 6 7 6 7 6 5 5 6 4 5 7 7 8 8 8 9 7 8 8 5
4 2 2 2 2 2 3 3 3 3 4 5 5 6 6 8 10 12 10 5 4 4 5 5 5 8 8 8 7 5 6 6 6 7 7 6 6 5 5 5 4 6 5
3 2 2 2 2 1 1 2 3 3 4 4 5 5 5 6 8 9 11 9 6 4 4 3 4 7 9 9 7 8 9 8 5 6 6 5 5 4 5 6 8 8 6
4 4 3 3 2 1 1 1 2 2 2 3 3 4 4 5 6 9 10 10 9 4 3 6 7 9 9 7 9 9 7 5 5 6 6 4 3 4 4 5 7 9 11
6 5 4 3 3 2 1 1 1 1 1 2 2 3 3 4 4 5 5 5 6 5 4 6 8 9 8 7 7 6 5 4 5 5 4 3 3 4 4 3 4 4 5
7 6 5 4 4 3 3 3 3 4 4 3 2 2 1 3 4 4 3 3 2 2 2 3 4 4 4 4 4 4 4 4 4 3 4 4 4 4 3 3 3 3 3
7 7 5 5 4 4 3 4 5 6 6 7 7 5 4 5 5 3 3 4 3 2 3 2 2 2 2 2 2 2 3 3 3 3 4 4 4 4 3 3 3 4 4
9 8 6 6 5 5 4 4 4 4 5 6 7 8 7 6 4 3 2 3 2 3 2 1 1 1 1 1 1 1 1 1 1 3 3 3 4 3 3 4 4 4 4
10 10 8 7 6 6 6 6 5 4 4 4 5 7 8 8 6 4 2 0 1 1 1 2 2 2 2 2 2 1 1 1 1 2 2 3 3 3 3 4 4 4 4
10 8 8 7 7 6 6 6 5 6 5 5 4 4 6 6 6 5 4 3 3 3 3 3 3 3 2 3 2 2 3 2 2 2 2 3 3 3 3 4 4 5 4
10 13 11 8 7 6 6 6 6 6 6 6 6 5 3 3 3 4 4 4 4 5 4 4 4 4 4 3 3 3 3 3 3 3 3 3 4 4 4 5 5 4 4
9 10 14 9 8 8 7 8 8 7 7 7 7 7 8 6 6 6 6 6 6 7 6 6 5 5 5 4 4 5 5 4 4 4 4 4 4 4 4 4 5 5 4
8 9 9 9 9 9 8 8 8 8 8 9 7 6 11 7 6 6 7 7 7 7 7 6 6 6 6 6 6 6 6 5 5 5 5 5 4 4 4 4 5 4 5
8 9 9 9 9 11 10 8 8 8 8 9 8 7 6 7 8 8 8 8 7 7 6 7 7 6 6 8 9 7 7 7 7 7 6 6 5 5 5 5 6 5 5
8 10 10 9 9 9 9 9 9 9 9 9 8 8 8 8 8 9 9 8 7 7 7 7 8 10 11 9 11 12 12 12 11 10 9 8 7 6 5 5 6 6 6
8 9 9 9 9 10 10 10 10 10 10 9 9 8 8 8 9 9 8 8 8 8 9 9 9 10 12 14 13 14 17 17 15 13 11 7 8 7 7 6 5 5 5
7 8 9 8 9 9 9 10 10 10 10 10 9 9 9 9 9 9 8 8 8 8 8 8 11 13 14 15 18 20 20 20 19 17 13 8 8 7 7 6 7 6 6
Wind_Direction
347 347 351 349 350 352 355 350 347 347 348 346 343 342 340 336 330 307 254 245 210 200 195 186 193 189 190 188 183 182 188 177 181 183 172 145 152 157 149 148 146 141 143
341 347 350 349 353 358 356 351 350 349 348 348 347 346 345 341 336 336 283 228 207 199 196 186 197 196 195 192 187 188 187 176 166 172 168 156 149 151 146 140 129 134 131
346 351 353 353 354 354 351 348 351 352 354 356 358 359 355 351 353 353 352 49 235 207 190 188 196 190 202 203 192 188 185 180 165 164 165 149 133 135 132 122 119 114 122
350 353 353 349 347 346 346 350 353 356 3 1 0 1 1 2 6 10 24 46 33 24 177 195 204 201 205 200 195 192 184 176 165 159 157 152 145 141 141 138 128 112 109
352 350 344 341 345 351 355 355 358 6 9 3 7 7 5 6 13 17 30 50 46 39 33 13 251 222 215 199 189 185 179 172 163 164 165 160 162 161 158 145 136 122 101
346 338 339 347 352 356 356 359 5 9 9 13 12 10 10 11 19 35 47 48 49 41 22 4 8 44 88 138 156 164 172 171 170 169 172 172 171 159 145 147 143 141 132
334 335 344 348 351 351 357 7 10 9 12 15 13 13 8 4 28 43 46 48 43 33 29 28 40 48 62 80 88 102 115 141 163 165 168 173 166 162 153 154 151 138 130
324 329 338 346 345 348 1 7 5 5 10 12 11 10 13 18 31 41 43 44 46 37 32 37 50 42 68 90 91 82 73 74 129 153 156 161 155 153 154 146 136 115 99
298 306 318 334 342 350 355 354 357 7 12 13 10 13 14 11 24 34 38 37 41 33 28 34 47 54 73 90 97 95 84 67 77 102 112 121 128 133 138 134 136 134 126
263 275 296 314 330 338 339 341 349 3 7 10 16 14 13 10 16 27 33 40 41 33 28 28 38 51 67 78 90 101 94 78 85 88 88 91 102 116 127 143 151 147 135
249 266 293 304 302 310 334 345 351 4 16 18 13 9 12 9 12 22 32 40 39 37 33 22 24 47 63 68 71 86 98 99 95 97 95 89 85 85 85 90 111 141 141
223 247 275 292 306 323 343 345 359 12 19 12 9 3 3 2 8 17 30 37 41 51 35 15 27 56 65 67 73 83 90 92 92 94 94 91 92 88 86 85 86 79 74
212 234 254 273 287 302 307 329 346 4 12 0 4 358 347 351 360 16 24 29 35 47 38 41 52 60 64 67 70 74 78 83 90 95 96 88 85 96 99 94 84 81 73
215 230 236 244 260 266 262 253 257 281 309 328 338 336 336 342 349 356 1 10 22 35 39 46 54 57 59 61 60 57 58 77 96 99 97 90 87 90 88 95 105 98 85
217 225 227 228 235 243 246 238 234 236 218 223 241 247 281 316 309 327 350 352 355 10 47 47 42 43 46 46 50 54 56 69 81 84 100 101 98 96 85 78 97 94 101
214 222 221 222 225 227 241 270 252 240 251 239 226 216 231 246 280 317 345 352 4 65 78 66 56 55 60 60 70 57 55 71 81 98 106 110 115 113 102 83 85 103 114
211 216 213 214 217 219 219 230 265 282 264 254 244 235 231 242 256 278 322 358 24 82 89 114 136 139 131 122 114 104 98 88 100 113 118 122 121 117 116 116 112 111 115
213 218 212 213 213 215 216 217 221 238 268 278 263 246 239 236 235 238 249 65 12 49 170 198 203 197 189 183 177 166 143 120 114 130 134 138 138 134 134 139 141 140 139
212 216 214 211 211 212 213 214 216 223 234 250 268 271 245 233 230 233 205 187 215 226 217 217 215 207 203 197 190 180 171 167 165 160 163 163 158 148 153 158 156 154 147
216 219 209 208 209 208 209 212 217 221 228 236 244 245 215 181 212 222 208 210 215 223 220 218 217 211 205 201 192 182 178 181 180 180 184 181 174 168 171 172 169 167 172
216 219 213 208 210 210 210 214 217 218 223 231 238 232 200 203 221 222 216 215 218 220 218 216 214 210 207 199 193 191 191 193 192 191 190 186 178 177 178 175 176 174 166
217 214 208 210 213 213 214 214 213 217 223 230 240 239 218 212 222 225 225 226 223 219 212 206 210 210 204 200 196 194 196 200 198 193 191 186 180 178 173 173 175 175 175
222 218 215 215 213 215 216 215 214 218 223 226 229 226 215 215 224 227 230 230 223 218 210 204 210 215 211 209 204 196 198 204 202 191 186 185 184 182 178 182 182 179 188
229 225 222 219 215 214 216 218 218 220 222 225 225 225 223 221 223 226 228 227 222 218 209 205 211 215 209 207 209 209 212 211 203 197 188 186 187 187 184 186 189 191 194
236 232 227 222 219 218 220 221 221 221 222 224 225 225 223 221 223 227 226 222 218 219 216 210 213 215 215 210 208 211 214 213 207 200 192 186 188 188 186 187 188 189 192
249 241 236 230 224 222 221 223 225 223 223 224 223 222 221 221 223 224 222 218 217 220 219 214 214 214 214 214 215 215 214 212 209 203 193 187 189 192 189 193 193 191 191
Height
1520 1516 1513 1509 1506 1503 1500 1497 1495 1492 1489 1487 1485 1483 1482 1480 1480 1480 1480 1481 1482 1484 1485 1487 1489 1491 1492 1494 1497 1499 1501 1504 1506 1509 1511 1513 1516 1518 1521 1523 1525 1527 1530
1520 1517 1513 1510 1507 1504 1501 1498 1495 1492 1490 1487 1485 1483 1481 1480 1479 1478 1479 1479 1480 1482 1483 1485 1486 1488 1490 1491 1494 1496 1498 1500 1503 1505 1508 1510 1512 1515 1517 1520 1522 1524 1527
1521 1518 1514 1511 1508 1505 1502 1499 1496 1493 1490 1487 1485 1483 1481 1480 1479 1478 1478 1478 1479 1480 1481 1483 1484 1486 1487 1488 1490 1492 1494 1497 1499 1502 1504 1507 1509 1512 1514 1517 1519 1521 1524
1521 1518 1515 1512 1509 1506 1503 1500 1496 1493 1491 1488 1486 1484 1482 1480 1479 1478 1478 1477 1478 1479 1480 1481 1482 1483 1484 1486 1487 1489 1491 1493 1496 1499 1502 1504 1507 1509 1512 1514 1517 1519 1521
1522 1519 1516 1514 1511 1508 1505 1501 1498 1495 1492 1490 1487 1485 1483 1481 1480 1479 1478 1478 1478 1478 1479 1480 1481 1482 1483 1484 1485 1487 1489 1490 1493 1496 1499 1501 1504 1506 1509 1512 1514 1517 1519
1522 1520 1517 1515 1512 1509 1506 1504 1501 1498 1495 1493 1490 1487 1485 1483 1481 1480 1479 1479 1479 1479 1479 1479 1480 1481 1482 1483 1484 1485 1487 1488 1490 1493 1496 1498 1501 1504 1507 1509 1512 1515 1517
1523 1520 1518 1516 1513 1511 1508 1506 1503 1501 1498 1495 1492 1490 1487 1485 1483 1482 1481 1480 1480 1479 1479 1479 1480 1480 1481 1482 1483 1484 1485 1487 1489 1491 1493 1496 1498 1501 1504 1507 1510 1513 1515
1523 1521 1519 1517 1515 1513 1510 1508 1506 1503 1501 1498 1495 1492 1489 1487 1486 1484 1483 1482 1481 1481 1480 1480 1481 1481 1481 1482 1483 1484 1485 1486 1487 1489 1492 1494 1497 1500 1503 1506 1508 1511 1514
1523 1521 1519 1517 1516 1514 1512 1510 1508 1506 1503 1500 1498 1495 1492 1490 1489 1487 1486 1485 1483 1483 1482 1482 1482 1482 1482 1483 1483 1484 1485 1486 1488 1489 1491 1494 1496 1499 1501 1505 1507 1510 1512
1523 1521 1520 1518 1516 1515 1513 1511 1509 1507 1505 1503 1500 1498 1496 1493 1492 1490 1489 1487 1486 1485 1485 1485 1485 1485 1485 1485 1485 1485 1486 1487 1489 1490 1492 1494 1496 1499 1502 1504 1507 1509 1511
1523 1521 1520 1518 1517 1515 1514 1512 1510 1508 1506 1504 1503 1501 1499 1496 1495 1493 1492 1490 1489 1489 1488 1488 1488 1488 1488 1487 1487 1488 1488 1489 1491 1492 1494 1495 1497 1500 1502 1504 1507 1510 1512
1522 1521 1520 1519 1517 1516 1514 1513 1511 1509 1508 1506 1504 1502 1501 1499 1497 1496 1495 1493 1492 1492 1491 1491 1491 1490 1490 1490 1490 1491 1491 1492 1493 1494 1495 1497 1499 1501 1503 1505 1508 1510 1512
1521 1520 1519 1518 1517 1516 1514 1513 1512 1510 1509 1507 1505 1504 1502 1500 1499 1498 1497 1496 1495 1494 1494 1494 1493 1493 1493 1493 1493 1494 1494 1495 1495 1496 1497 1499 1500 1502 1504 1506 1508 1510 1512
1520 1519 1518 1517 1516 1515 1514 1513 1512 1510 1509 1508 1506 1505 1503 1502 1501 1499 1498 1497 1497 1496 1496 1496 1496 1496 1496 1496 1496 1496 1496 1497 1497 1498 1499 1500 1502 1503 1505 1507 1508 1510 1512
1517 1517 1516 1516 1515 1514 1513 1512 1511 1510 1509 1508 1507 1505 1504 1503 1502 1500 1500 1499 1498 1498 1497 1497 1497 1497 1497 1497 1497 1498 1498 1499 1499 1500 1501 1502 1503 1504 1506 1507 1509 1510 1512
1514 1514 1514 1513 1513 1512 1511 1510 1509 1509 1508 1507 1506 1505 1504 1503 1502 1501 1500 1499 1499 1499 1499 1498 1498 1498 1498 1498 1499 1499 1499 1500 1500 1501 1502 1503 1504 1505 1506 1508 1509 1510 1511
1511 1511 1511 1510 1510 1509 1509 1508 1507 1507 1506 1506 1505 1504 1503 1502 1501 1500 1500 1499 1499 1499 1499 1498 1498 1499 1499 1499 1499 1499 1500 1500 1501 1502 1502 1503 1504 1505 1506 1507 1509 1510 1511
1507 1507 1507 1506 1506 1506 1505 1505 1505 1504 1504 1503 1503 1502 1502 1501 1500 1499 1499 1498 1498 1498 1498 1498 1498 1498 1498 1498 1499 1499 1500 1500 1501 1502 1503 1503 1504 1505 1506 1507 1508 1509 1510
1502 1502 1502 1502 1502 1502 1501 1501 1501 1501 1500 1500 1500 1500 1499 1499 1498 1498 1497 1497 1496 1496 1496 1496 1496 1496 1497 1497 1497 1498 1499 1499 1500 1501 1502 1503 1504 1505 1505 1507 1508 1509 1510
1496 1496 1496 1497 1497 1497 1497 1496 1496 1496 1496 1496 1496 1496 1496 1496 1495 1495 1495 1494 1494 1494 1494 1494 1494 1494 1494 1495 1495 1496 1497 1497 1498 1499 1500 1501 1502 1503 1504 1505 1506 1507 1508
1489 1489 1490 1490 1490 1491 1491 1491 1491 1491 1491 1491 1491 1492 1492 1492 1491 1491 1491 1491 1491 1491 1491 1491 1491 1491 1491 1492 1492 1493 1494 1495 1495 1496 1498 1499 1500 1501 1502 1503 1504 1505 1506
1481 1482 1482 1482 1483 1484 1484 1485 1485 1485 1485 1485 1486 1486 1487 1486 1486 1487 1487 1487 1487 1487 1487 1487 1487 1488 1488 1488 1489 1489 1490 1491 1492 1493 1494 1495 1497 1498 1499 1500 1501 1502 1504
1473 1474 1474 1475 1476 1476 1477 1477 1478 1478 1478 1479 1479 1480 1480 1481 1481 1481 1482 1482 1482 1482 1483 1483 1483 1483 1484 1484 1485 1485 1486 1487 1488 1489 1490 1492 1493 1494 1496 1497 1498 1499 1500
1465 1465 1466 1467 1467 1468 1469 1469 1470 1471 1471 1472 1473 1473 1474 1474 1475 1475 1476 1477 1477 1477 1478 1478 1478 1479 1479 1480 1480 1481 1482 1483 1484 1485 1486 1488 1489 1490 1491 1493 1494 1495 1496
1456 1457 1457 1458 1459 1459 1460 1461 1462 1463 1463 1464 1465 1466 1466 1467 1468 1468 1469 1470 1471 1471 1472 1473 1473 1474 1474 1475 1476 1476 1477 1478 1479 1480 1482 1483 1484 1486 1487 1488 1489 1491 1492
1449 1448 1449 1449 1450 1451 1452 1452 1453 1454 1455 1456 1457 1458 1459 1459 1460 1461 1462 1463 1464 1465 1465 1466 1467 1468 1469 1470 1470 1471 1472 1473 1474 1475 1477 1478 1479 1480 1482 1483 1484 1486 1487